Overview Statistics Trail Chart Weather Telemetry Raw packets
 

This is the latest recevied weather packets stored in our database for station/object KK6MIG-13. If no packets are shown the sender has not sent any weather packets the latest 10 day(s).

<< 414 415 416 417 418 419 420 >>
Time Temp. Humidity Pressure Rain* Wind** Luminosity Snow
1788036022 16.11° C 23% 1014.3 hPa 0 mm - 1042 W/m² -
1788035962 16.11° C 22% 1014.3 hPa 0 mm - 1085 W/m² -
1788035902 16.11° C 18% 1014.3 hPa 0 mm - 1014 W/m² -
1788035842 16.11° C 13% 1014.3 hPa 0 mm - 1014 W/m² -
1788035782 16.11° C 17% 1014.3 hPa 0 mm - 1014 W/m² -
1788035723 16.11° C 18% 1014.3 hPa 0 mm - 1014 W/m² -
1788035662 16.11° C 11% 1014.3 hPa 0 mm - 1014 W/m² -
1788035602 16.11° C 13% 1014.3 hPa 0 mm - 993 W/m² -
1788035542 16.11° C 9% 1014.4 hPa 0 mm - 963 W/m² -
1788035481 16.11° C 14% 1014.4 hPa 0 mm - 1023 W/m² -
1788035414 16.11° C 15% 1014.4 hPa 0 mm - 1086 W/m² -
1788035354 16.11° C 16% 1014.4 hPa 0 mm - 939 W/m² -
1788035294 16.11° C 18% 1014.4 hPa 0 mm - 1063 W/m² -
1788035235 16.11° C 11% 1014.4 hPa 0 mm - 1063 W/m² -
1788035174 16.11° C 8% 1014.4 hPa 0 mm - 1063 W/m² -
1788035114 16.11° C 10% 1014.4 hPa 0 mm - 1063 W/m² -
1788035054 16.11° C 15% 1014.4 hPa 0 mm - 1063 W/m² -
1788034994 16.11° C 19% 1014.4 hPa 0 mm - 1039 W/m² -
1788034934 16.11° C 22% 1014.5 hPa 0 mm - 1044 W/m² -
1788034874 16.11° C 25% 1014.6 hPa 0 mm - 1034 W/m² -
1788034814 16.11° C 21% 1014.6 hPa 0 mm - 1021 W/m² -
1788034755 16.11° C 15% 1014.5 hPa 0 mm - 1020 W/m² -
1788034690 16.11° C 11% 1014.4 hPa 0 mm - 974 W/m² -
1788034639 16.11° C 12% 1014.5 hPa 0 mm - 974 W/m² -
1788034634 16.11° C 9% 1014.5 hPa 0 mm - 974 W/m² -

* Rain latest hour (hover to see other rain measurements)
** Current wind speed in m/s (hover to see current wind gust speed)